Weather History for KELZ - November, 2012

Change the Weather History Date:

Tuesday, November 6, 2012

  Actual Average (KBFD) Record (KBFD)
Temperature  
Mean Temperature 31 °F 41 °F  
Max Temperature 37 °F 49 °F 67 °F (2005)
Min Temperature 25 °F 32 °F 15 °F (1967)
Degree Days  
Heating Degree Days 34 20  
Month to date heating degree days 115  
Since 1 July heating degree days 1108  
Cooling Degree Days 0 0  
Month to date cooling degree days 0  
Year to date cooling degree days 193  
Moisture  
Dew Point 18 °F    
Average Humidity 63    
Maximum Humidity 72    
Minimum Humidity 48    
Precipitation  
Precipitation 0.00 in 0.12 in 0.60 in (1968)
Month to date precipitation 0.70  
Year to date precipitation 38.00  
Sea Level Pressure  
Sea Level Pressure 30.13 in    
Wind  
Wind Speed 4 mph (SE)    
Max Wind Speed 10 mph    
Max Gust Speed 16 mph    
Visibility 10 miles    
Events      
T = Trace of Precipitation, MM = Missing Value Source: NWS Daily Summary

Daily Weather History Graph

Daily Weather History Graph

Search for Another Location

Airport or City:

Trip Planner

Search our weather history database for the weather conditions in past years. The results will help you decide how hot, cold, wet, or windy it might be!

Date:

Astronomy

Nov. 06, 2012 Rise Set
Actual Time 6:51 AM EST 4:59 PM EST
Civil Twilight 6:22 AM EST 5:28 PM EST
Nautical Twilight 5:48 AM EST 6:01 PM EST
Astronomical Twilight 5:15 AM EST 6:34 PM EST
Moon 11:37 PM EST (11/6) 12:41 PM EST (11/6)
Length of Visible Light 11h 06m
Length of Day
10h 07m
Waning Gibbous, 53% of the Moon is Illuminated
Nov 6
Waning Gibbous
Nov 6
Last Quarter
Nov 13
New
Nov 20
First Quarter
Nov 28
Full

Hourly Weather History & Observations

Time (EST) Temp. Windchill Dew Point Humidity Pressure Visibility Wind Dir Wind Speed Gust Speed Precip Events Conditions
12:56 AM 28.0 °F - 19.0 °F 69% 30.19 in 10.0 mi Calm Calm - N/A   Overcast
1:56 AM 28.0 °F 24.2 °F 19.0 °F 69% 30.19 in 10.0 mi East 3.5 mph - N/A   Overcast
2:56 AM 27.0 °F 23.0 °F 19.0 °F 72% 30.18 in 10.0 mi East 3.5 mph - N/A   Overcast
3:56 AM 27.0 °F 23.0 °F 18.0 °F 69% 30.17 in 10.0 mi East 3.5 mph - N/A   Overcast
4:56 AM 27.0 °F - 19.0 °F 72% 30.18 in 10.0 mi Calm Calm - N/A   Overcast
5:56 AM 27.0 °F - 17.1 °F 66% 30.17 in 10.0 mi Calm Calm - N/A   Overcast
6:56 AM 27.0 °F 23.0 °F 18.0 °F 69% 30.18 in 10.0 mi ESE 3.5 mph - N/A   Overcast
7:56 AM 27.0 °F 20.5 °F 18.0 °F 69% 30.19 in 10.0 mi ESE 5.8 mph - N/A   Overcast
8:56 AM 28.0 °F 22.8 °F 18.0 °F 66% 30.20 in 10.0 mi SE 4.6 mph - N/A   Overcast
9:56 AM 28.0 °F 19.3 °F 18.0 °F 66% 30.19 in 10.0 mi SSE 9.2 mph - N/A   Overcast
10:56 AM 30.9 °F 22.2 °F 19.0 °F 61% 30.18 in 10.0 mi SE 10.4 mph - N/A   Overcast
11:34 AM 30.2 °F 21.9 °F 19.4 °F 64% 30.10 in 10.0 mi SSE 9.2 mph - N/A   Scattered Clouds
11:48 AM 33.8 °F 25.8 °F 19.4 °F 56% 30.09 in 10.0 mi SE 10.4 mph - N/A   Mostly Cloudy
11:56 AM 32.0 °F 24.2 °F 19.0 °F 59% 30.16 in 10.0 mi ESE 9.2 mph - N/A   Mostly Cloudy
12:23 PM 33.8 °F 27.0 °F 19.4 °F 56% 30.08 in 10.0 mi SE 8.1 mph 16.1 mph N/A   Partly Cloudy
12:56 PM 35.1 °F 29.3 °F 19.0 °F 52% 30.13 in 10.0 mi Variable 6.9 mph - N/A   Clear
1:56 PM 35.1 °F 31.0 °F 19.0 °F 52% 30.11 in 10.0 mi ESE 4.6 mph - N/A   Clear
2:56 PM 37.0 °F 32.4 °F 19.0 °F 48% 30.10 in 10.0 mi Variable 5.8 mph - N/A   Clear
3:56 PM 36.0 °F 33.3 °F 19.0 °F 50% 30.09 in 10.0 mi SSE 3.5 mph - N/A   Clear
5:56 PM 32.0 °F 28.7 °F 18.0 °F 56% 30.10 in 10.0 mi SE 3.5 mph - N/A   Clear
6:56 PM 30.0 °F 24.1 °F 18.0 °F 61% 30.11 in 10.0 mi SE 5.8 mph - N/A   Clear
7:56 PM 28.9 °F 22.8 °F 18.0 °F 64% 30.10 in 10.0 mi SE 5.8 mph - N/A   Clear
8:56 PM 28.0 °F 21.7 °F 18.0 °F 66% 30.11 in 10.0 mi SE 5.8 mph - N/A   Clear
9:56 PM 28.0 °F - 18.0 °F 66% 30.09 in 10.0 mi Calm Calm - N/A   Clear
10:56 PM 25.0 °F 19.3 °F 17.1 °F 72% 30.05 in 10.0 mi NE 4.6 mph - N/A   Clear
11:56 PM 27.0 °F - 18.0 °F 69% 30.07 in 10.0 mi Calm Calm - N/A   Clear